Jaipur, India

3:39 AM IST on April 27, 2017 (GMT +0530)
Jaipur

Weather History for VIJP - August, 2014

Change the Weather History Date:

Saturday, August 23, 2014

  Actual Average Record
Temperature  
Mean Temperature 92 °F -  
Max Temperature 102 °F - - ()
Min Temperature 81 °F - - ()
Cooling Degree Days 26    
Growing Degree Days 42 (Base 50)    
Moisture  
Dew Point 67 °F    
Average Humidity 45    
Maximum Humidity 66    
Minimum Humidity 21    
Precipitation  
Precipitation 0.00 in - - ()
Sea Level Pressure  
Sea Level Pressure 29.72 in    
Wind  
Wind Speed 4 mph ()    
Max Wind Speed 7 mph    
Max Gust Speed -    
Visibility 2.0 miles    
Events      
T = Trace of Precipitation, MM = Missing Value Source: Averaged Metar Reports

Daily Weather History Graph

Daily Weather History Graph

Search for Another Location

Airport or City:

Trip Planner

Search our weather history database for the weather conditions in past years. The results will help you decide how hot, cold, wet, or windy it might be!

Date:

Astronomy

Aug. 23, 2014 Rise Set
Actual Time 6:02 AM IST 6:56 PM IST
Civil Twilight 5:38 AM IST 7:20 PM IST
Nautical Twilight 5:09 AM IST 7:48 PM IST
Astronomical Twilight 4:40 AM IST 8:17 PM IST
Moon 3:58 AM IST (8/23) 5:21 PM IST (8/23)
Length of Visible Light 13h 42m
Length of Day
12h 54m
Waning Crescent, 5% of the Moon is Illuminated
Aug 23
Waning Crescent
Aug 25
New
Sep 2
First Quarter
Sep 9
Full
Sep 16
Last Quarter

Hourly Weather History & Observations

Time (IST) Temp. Heat Index Dew Point Humidity Pressure Visibility Wind Dir Wind Speed Gust Speed Precip Events Conditions
12:00 AM 87.8 °F 91.4 °F 68.0 °F 52% 29.74 in 1.9 mi West 4.6 mph - N/A   Haze
1:00 AM 86.0 °F 89.4 °F 68.0 °F 55% 29.74 in 1.9 mi West 4.6 mph - N/A   Haze
2:00 AM 86.0 °F 90.4 °F 69.8 °F 58% 29.74 in 1.9 mi West 4.6 mph - N/A   Haze
2:30 AM 85 °F - 70 °F 52% 29.65 in 1 mi West 3.5 mph - -   Haze
3:00 AM 84.2 °F 88.4 °F 69.8 °F 62% 29.74 in 1.9 mi West 4.6 mph - N/A   Haze
4:00 AM 84.2 °F 87.3 °F 68.0 °F 58% 29.74 in 1.9 mi West 4.6 mph - N/A   Haze
5:30 AM 82 °F - 70 °F 58% 29.68 in 1 mi WNW 3.5 mph - -   Haze
6:00 AM 82.4 °F 86.3 °F 69.8 °F 66% 29.77 in 1.9 mi West 3.5 mph - N/A   Haze
7:00 AM 84.2 °F 88.4 °F 69.8 °F 62% 29.77 in 1.9 mi WNW 4.6 mph - N/A   Haze
8:00 AM 87.8 °F 93.8 °F 71.6 °F 58% 29.80 in 1.9 mi WNW 3.5 mph - N/A   Haze
8:30 AM 88 °F - 72 °F 51% 29.68 in 1 mi WNW 3.5 mph - -   Haze
9:00 AM 89.6 °F 94.7 °F 69.8 °F 52% 29.80 in 1.9 mi West 6.9 mph - N/A   Haze
10:00 AM 91.4 °F 94.0 °F 66.2 °F 43% 29.80 in 2.5 mi West 4.6 mph - N/A   Haze
11:00 AM 93.2 °F 96.2 °F 66.2 °F 41% 29.80 in 2.5 mi West 4.6 mph - N/A   Haze
11:30 AM 97 °F - 70 °F 32% 29.69 in 1 mi SW 4.6 mph - -   Haze
12:00 PM 95.0 °F 98.5 °F 66.2 °F 39% 29.80 in 2.5 mi West 4.6 mph - N/A   Haze
1:00 PM 96.8 °F 100.7 °F 66.2 °F 37% 29.77 in 2.5 mi WSW 4.6 mph - N/A   Haze
2:00 PM 96.8 °F 99.0 °F 64.4 °F 34% 29.77 in 2.5 mi West 6.9 mph - N/A   Haze
2:30 PM 100 °F - 63 °F 21% 29.64 in 2 mi West 6.9 mph - -   Haze
3:00 PM 98.6 °F 100.0 °F 62.6 °F 30% 29.74 in 2.5 mi WNW 6.9 mph - N/A   Haze
4:00 PM 98.6 °F 100.0 °F 62.6 °F 30% 29.71 in 2.5 mi SSW 6.9 mph - N/A   Haze
5:00 PM 96.8 °F 99.0 °F 64.4 °F 34% 29.68 in 2.5 mi East 5.8 mph - N/A   Haze
5:30 PM 98 °F - 63 °F 23% 29.59 in 2 mi West 4.6 mph - -   Haze
6:00 PM 96.8 °F 97.1 °F 60.8 °F 30% 29.68 in 2.5 mi WNW 4.6 mph - N/A   Haze
7:00 PM 95.0 °F 95.2 °F 60.8 °F 32% 29.71 in 2.5 mi WNW 5.8 mph - N/A   Haze
8:00 PM 93.2 °F 94.1 °F 62.6 °F 36% 29.71 in 2.5 mi Variable 2.3 mph - N/A   Haze
8:30 PM 92 °F - 69 °F 38% 29.62 in 2 mi West 2.3 mph - -   Haze
10:00 PM 87.8 °F 90.4 °F 66.2 °F 49% 29.74 in 1.9 mi Calm Calm - N/A   Haze
11:00 PM 86.0 °F 90.4 °F 69.8 °F 58% 29.74 in 1.9 mi Calm Calm - N/A   Haze
11:30 PM 86 °F - 73 °F 57% 29.65 in 1 mi Calm Calm - -   Haze